Total_Precipitation_Accumulation
0.80 0.76 0.80 0.90 0.94 0.98 0.97 0.88 0.81 0.79 0.81 0.89 1.01 1.03 1.03 1.05 1.02 0.99 0.94 0.91 0.90 0.90 0.94 1.00 0.97 0.95 1.01 0.97 0.91 0.87 0.88 0.99 1.00 0.52 0.39 0.42 0.62 0.82 0.87 0.88 0.92 0.88 0.81
0.77 0.83 0.79 0.82 0.93 0.95 0.88 0.85 0.86 0.83 0.82 0.85 0.95 1.08 1.11 1.10 1.07 1.06 1.04 1.07 1.12 1.08 1.02 1.04 1.07 1.07 1.10 1.08 1.07 0.98 0.87 0.83 0.92 0.76 0.52 0.54 0.66 0.83 0.89 0.92 0.99 0.97 0.89
0.63 0.78 0.85 0.86 0.90 0.96 0.90 0.82 0.86 0.89 0.87 0.86 0.95 1.09 1.17 1.19 1.16 1.08 1.07 1.12 1.21 1.29 1.27 1.24 1.18 1.18 1.19 1.14 1.14 1.09 0.99 0.89 0.87 0.89 0.71 0.63 0.70 0.81 0.93 1.00 1.04 1.04 1.04
0.48 0.66 0.76 0.83 0.88 0.92 0.94 0.92 0.89 0.87 0.89 0.89 0.90 0.99 1.11 1.23 1.31 1.32 1.33 1.27 1.27 1.31 1.34 1.36 1.33 1.34 1.30 1.26 1.26 1.21 1.18 1.18 1.12 1.11 0.98 0.82 0.79 0.83 1.00 1.18 1.26 1.13 1.11
0.37 0.49 0.66 0.76 0.85 0.91 0.95 0.97 1.00 0.99 0.91 0.90 0.91 0.90 0.98 1.25 1.61 1.60 1.53 1.47 1.33 1.23 1.17 1.18 1.25 1.41 1.47 1.55 1.60 1.50 1.47 1.56 1.53 1.45 1.27 1.09 0.98 1.03 1.14 1.24 1.44 1.38 1.26
0.35 0.37 0.51 0.68 0.81 0.88 0.94 1.02 1.03 1.05 1.03 0.97 0.93 0.90 0.93 1.13 1.57 1.65 1.39 1.19 1.07 1.04 1.03 0.96 0.97 1.17 1.28 1.42 1.57 1.61 1.68 1.83 1.92 1.85 1.59 1.34 1.09 1.04 1.16 1.38 1.59 1.75 1.67
0.29 0.29 0.37 0.51 0.70 0.82 0.88 0.96 1.08 1.10 1.08 1.06 0.97 0.90 0.85 0.92 1.32 1.44 1.25 0.98 0.85 0.82 0.85 0.84 0.84 0.91 1.06 1.06 1.23 1.35 1.42 1.60 1.82 1.93 1.89 1.47 1.21 1.11 1.37 1.57 1.63 1.75 1.66
0.28 0.26 0.27 0.35 0.50 0.68 0.83 0.92 1.01 1.12 1.13 1.08 1.02 0.93 0.88 0.83 1.17 1.37 1.25 0.91 0.77 0.70 0.71 0.70 0.70 0.75 0.90 1.07 1.19 1.21 1.16 1.26 1.54 1.74 1.89 1.71 1.49 1.43 1.67 1.95 2.08 2.09 1.90
0.26 0.26 0.24 0.26 0.36 0.52 0.67 0.80 0.89 1.01 1.05 1.04 1.00 0.91 0.88 0.85 1.05 1.39 1.39 1.00 0.83 0.71 0.68 0.68 0.65 0.64 0.90 1.16 1.17 1.13 1.03 1.05 1.24 1.53 1.74 1.83 1.88 1.99 2.15 2.44 2.62 2.58 2.41
0.25 0.25 0.24 0.25 0.29 0.40 0.53 0.66 0.81 0.93 1.00 1.01 1.00 0.92 0.87 0.83 0.98 1.37 1.56 1.13 0.93 0.81 0.73 0.70 0.79 0.83 1.02 1.10 1.05 1.12 1.16 1.05 1.02 1.10 1.21 1.32 1.41 1.57 1.89 2.17 2.41 2.55 2.51
0.26 0.25 0.24 0.24 0.27 0.34 0.46 0.59 0.78 0.90 0.99 0.99 0.94 0.94 0.85 0.82 0.85 1.16 1.58 1.34 1.04 0.93 0.88 0.81 0.77 0.91 0.97 1.02 1.07 1.09 1.24 1.14 1.05 1.14 1.16 1.13 1.17 1.32 1.50 1.79 2.14 2.42 2.58
0.25 0.26 0.25 0.23 0.25 0.32 0.45 0.57 0.72 0.87 1.00 1.02 0.95 0.98 0.95 0.89 0.88 1.08 1.36 1.40 1.20 0.98 0.90 0.79 0.79 0.93 0.98 1.05 1.04 1.13 1.22 1.18 1.10 1.12 1.07 1.04 1.09 1.19 1.33 1.54 1.81 2.05 2.18
0.25 0.25 0.26 0.26 0.27 0.31 0.40 0.55 0.74 0.85 0.97 1.04 0.95 0.96 1.02 1.01 1.02 1.20 1.25 1.28 1.25 1.10 1.06 1.07 1.00 1.03 1.04 0.99 1.02 1.06 1.06 1.03 1.09 1.11 1.01 0.94 0.97 1.09 1.19 1.33 1.51 1.74 1.91
0.25 0.25 0.26 0.29 0.33 0.33 0.39 0.50 0.69 0.85 0.97 1.06 1.00 0.92 0.96 1.06 1.22 1.38 1.30 1.21 1.25 1.23 1.20 1.20 1.16 1.13 1.04 0.98 0.98 0.92 0.88 0.95 1.01 1.01 0.93 0.85 0.85 0.96 1.11 1.24 1.42 1.61 1.87
0.27 0.27 0.27 0.31 0.35 0.38 0.44 0.52 0.63 0.76 0.98 1.17 1.08 1.01 1.11 1.28 1.41 1.57 1.47 1.34 1.35 1.37 1.31 1.23 1.13 1.11 1.11 1.00 0.90 0.84 0.83 0.88 0.90 0.84 0.84 0.85 0.87 0.95 1.03 1.15 1.39 1.55 1.75
0.30 0.29 0.31 0.35 0.36 0.38 0.47 0.57 0.68 0.76 0.86 0.91 1.00 1.08 1.07 1.30 1.37 1.31 1.28 1.23 1.29 1.39 1.31 1.20 1.01 0.94 0.94 0.90 0.86 0.83 0.79 0.80 0.78 0.79 0.84 0.88 0.93 0.99 1.04 1.10 1.31 1.52 1.61
0.35 0.35 0.37 0.38 0.37 0.38 0.45 0.58 0.71 0.79 0.86 0.88 0.92 1.00 1.07 1.20 1.24 1.22 1.21 1.14 1.11 1.13 1.09 0.98 0.87 0.81 0.77 0.75 0.77 0.76 0.74 0.74 0.77 0.82 0.84 0.83 0.87 0.94 1.00 1.07 1.20 1.35 1.44
0.39 0.43 0.45 0.42 0.40 0.42 0.49 0.59 0.71 0.82 0.90 0.94 0.98 1.06 1.11 1.14 1.17 1.22 1.26 1.24 1.20 1.08 0.93 0.88 0.87 0.83 0.79 0.77 0.77 0.78 0.76 0.76 0.81 0.86 0.85 0.82 0.84 0.93 0.97 1.01 1.07 1.21 1.31
0.41 0.44 0.49 0.50 0.48 0.48 0.53 0.62 0.72 0.81 0.87 0.92 0.99 1.17 1.28 1.27 1.24 1.27 1.24 1.10 1.01 0.95 0.90 0.86 0.86 0.90 0.88 0.84 0.81 0.81 0.83 0.82 0.82 0.87 0.85 0.82 0.83 0.90 0.93 0.93 0.99 1.11 1.20
0.42 0.51 0.56 0.57 0.55 0.55 0.59 0.67 0.75 0.83 0.87 0.92 0.96 1.06 1.24 1.32 1.29 1.30 1.22 1.08 0.97 0.90 0.86 0.87 0.86 0.89 0.93 0.91 0.88 0.87 0.89 0.87 0.87 0.89 0.84 0.80 0.81 0.86 0.90 0.90 0.93 0.97 1.00
0.47 0.50 0.57 0.57 0.57 0.60 0.66 0.72 0.79 0.87 0.88 0.89 0.90 0.97 1.17 1.19 1.13 1.08 1.13 1.12 1.04 0.95 0.89 0.90 0.88 0.88 0.90 0.90 0.89 0.88 0.89 0.88 0.86 0.85 0.79 0.73 0.74 0.81 0.83 0.84 0.83 0.81 0.85
0.50 0.53 0.55 0.58 0.62 0.67 0.73 0.77 0.83 0.89 0.87 0.87 0.89 0.97 1.07 0.95 0.90 0.92 0.98 1.04 1.04 0.99 0.92 0.94 0.93 0.88 0.89 0.92 0.93 0.93 0.92 0.88 0.82 0.78 0.75 0.70 0.70 0.74 0.74 0.74 0.71 0.71 0.74
0.52 0.57 0.61 0.62 0.64 0.72 0.77 0.75 0.81 0.86 0.88 0.87 0.89 0.91 0.95 0.94 0.90 0.88 0.93 0.97 1.00 0.99 0.94 0.95 0.94 0.88 0.83 0.84 0.88 0.94 0.99 0.91 0.81 0.79 0.81 0.75 0.71 0.70 0.68 0.65 0.60 0.63 0.69
0.54 0.60 0.67 0.69 0.69 0.71 0.76 0.79 0.81 0.87 0.91 0.90 0.88 0.87 0.93 0.95 0.93 0.90 0.89 0.91 0.95 0.95 0.91 0.93 0.92 0.86 0.80 0.79 0.79 0.82 0.85 0.86 0.85 0.83 0.81 0.80 0.73 0.65 0.64 0.63 0.57 0.58 0.65
0.58 0.63 0.69 0.75 0.77 0.78 0.80 0.82 0.83 0.88 0.93 0.90 0.89 0.88 0.88 0.91 0.93 0.91 0.89 0.89 0.91 0.88 0.82 0.84 0.89 0.89 0.80 0.75 0.73 0.73 0.82 0.87 0.88 0.92 0.98 0.94 0.79 0.65 0.63 0.62 0.59 0.59 0.64
0.59 0.63 0.70 0.76 0.79 0.82 0.86 0.89 0.88 0.88 0.92 0.89 0.87 0.88 0.89 0.92 0.95 0.93 0.90 0.90 0.93 0.90 0.83 0.81 0.83 0.82 0.77 0.75 0.73 0.75 0.78 0.79 0.84 0.92 1.02 1.07 0.91 0.72 0.66 0.65 0.61 0.61 0.64